Tracking 25612 objects as of 19-May-2022
HD Live streaming from Space Station
objects crossing your sky now

COSMOS 2251 DEB

Track COSMOS 2251 DEB now!
10-day predictions


NORAD ID: 34021
Int'l Code: 1993-036HG
Perigee: 737.3 km
Apogee: 769.2 km
Inclination: 74.0 °
Period: 99.7 minutes
Semi major axis: 7124 km
RCS: 0.026 m2 (small)
Launch date: June 16, 1993
Source: Commonwealth of Independent States (former USSR) (CIS)
Launch site: PLESETSK MISSILE AND SPACE COMPLEX (PKMTR)

Note: This is SATELLITE DEBRIS
aabbcc
Your satellite tracking list
Your tracking list is empty




NASA's NSSDC Master Catalog

Two Line Element Set (TLE):
1 34021U 93036HG  22138.19697321  .00001368  00000-0  40878-3 0  9993
2 34021  74.0423  44.9824 0022417 152.2563   4.3387 14.43764522697682
Source of the keplerian elements: AFSPC